Location: Eastmont
(34.0236°N, 118.1551°W)
Time: 16:48:41
(UTC+00:00)

Daily predictions for brighter satellites

Satellite Brightness Start Highest point End
(mag) Time Altitude Azimuth Time Altitude Azimuth Time Altitude Azimuth
X-37B 0.9 12:01:21 10° WNW 12:04:03 37° SW 12:06:44 10° SSE
Sich 1 3.5 12:01:54 10° S 12:06:11 64° E 12:10:28 10° NNE
FALCON 9 DEB 3.0 12:06:08 10° NW 12:09:21 56° SW 12:12:33 10° SSE
Cosmos 2227 Rocket 2.3 12:04:54 10° SSW 12:10:31 67° WNW 12:16:11 10° NNE
Cosmos 1484 Rocket 2.8 12:06:55 10° N 12:10:51 74° WNW 12:14:44 10° SSW
CZ-2C R/B 3.4 12:10:59 10° NNW 12:14:50 26° WNW 12:18:37 10° SW
CZ-4C R/B 4.0 12:10:45 10° SSE 12:15:00 69° ENE 12:19:22 10° N
Cosmos 2346 Rocket 4.5 12:09:00 10° SSW 12:15:01 74° W 12:21:07 10° N
DELTA 2 DEB (DPAF) 4.3 12:10:47 10° S 12:15:03 51° W 12:19:21 10° NNW
COSMOS 2428 3.5 12:12:30 10° NW 12:17:21 29° WSW 12:22:11 10° SSW
